Aurora, CO

1:52 AM MDT on August 20, 2017 (GMT -0600)
Buckley Air Force Base

Weather History for KBKF - May, 2013

Change the Weather History Date:

Saturday, May 18, 2013

  Actual Average Record
Temperature  
Mean Temperature 62 °F -  
Max Temperature 73 °F 68 °F 84 °F (2012)
Min Temperature 50 °F 43 °F 32 °F (2017)
Degree Days  
Heating Degree Days 3    
Growing Degree Days 12 (Base 50)    
Moisture  
Dew Point 31 °F    
Average Humidity 32    
Maximum Humidity 66    
Minimum Humidity 19    
Precipitation  
Precipitation 0.00 in - - ()
Sea Level Pressure  
Sea Level Pressure 29.68 in    
Wind  
Wind Speed 8 mph (South)    
Max Wind Speed 25 mph    
Max Gust Speed 32 mph    
Visibility 10 miles    
Events      
Averages and records for this station are not official NWS values.
T = Trace of Precipitation, MM = Missing Value Source: NWS Daily Summary

Daily Weather History Graph

Daily Weather History Graph

Search for Another Location

Airport or City:

Trip Planner

Search our weather history database for the weather conditions in past years. The results will help you decide how hot, cold, wet, or windy it might be!

Date:

Astronomy

May. 18, 2013 Rise Set
Actual Time 5:41 AM MDT 8:09 PM MDT
Civil Twilight 5:10 AM MDT 8:40 PM MDT
Nautical Twilight 4:32 AM MDT 9:18 PM MDT
Astronomical Twilight 3:50 AM MDT 10:01 PM MDT
Moon 1:16 PM MDT (5/18) 1:34 AM MDT (5/18)
Length of Visible Light 15h 29m
Length of Day
14h 28m
First Quarter, 56% of the Moon is Illuminated
May 18
First Quarter
May 24
Full
May 31
Last Quarter
Jun 8
New
Jun 16
First Quarter

Hourly Weather History & Observations

Time (MDT) Temp. Dew Point Humidity Pressure Visibility Wind Dir Wind Speed Gust Speed Precip Events Conditions
12:55 AM 60.8 °F 21.2 °F 22% 29.65 in 10.0 mi SSW 4.6 mph - N/A   Scattered Clouds
1:55 AM 57.2 °F 21.2 °F 25% 29.65 in 10.0 mi SSW 5.8 mph - N/A   Partly Cloudy
2:55 AM 55.4 °F 21.2 °F 26% 29.67 in 10.0 mi South 8.1 mph - N/A   Partly Cloudy
3:55 AM 53.6 °F 23.0 °F 30% 29.68 in 10.0 mi South 12.7 mph - N/A   Partly Cloudy
4:55 AM 55.4 °F 23.0 °F 29% 29.67 in 10.0 mi SW 11.5 mph - N/A   Scattered Clouds
5:55 AM 57.2 °F 21.2 °F 25% 29.69 in 70.0 mi SSW 6.9 mph - N/A   Mostly Cloudy
6:55 AM 57.2 °F 26.6 °F 31% 29.73 in 70.0 mi SSW 6.9 mph - N/A   Mostly Cloudy
7:55 AM 60.8 °F 32.0 °F 34% 29.74 in 70.0 mi SSW 5.8 mph - N/A   Mostly Cloudy
8:55 AM 64.4 °F 32.0 °F 30% 29.76 in 70.0 mi West 4.6 mph - N/A   Mostly Cloudy
9:58 AM 64.4 °F 32.0 °F 30% 29.75 in 70.0 mi SE 3.5 mph - N/A   Mostly Cloudy
10:55 AM 68.0 °F 37.4 °F 33% 29.74 in 70.0 mi East 5.8 mph - N/A   Overcast
11:55 AM 69.8 °F 35.6 °F 28% 29.70 in 70.0 mi ENE 4.6 mph - N/A   Mostly Cloudy
12:55 PM 71.6 °F 32.0 °F 23% 29.69 in 70.0 mi East 8.1 mph - N/A   Mostly Cloudy
1:55 PM 73.4 °F 32.0 °F 22% 29.66 in 70.0 mi NE 9.2 mph - N/A   Mostly Cloudy
2:55 PM 71.6 °F 32.0 °F 23% 29.66 in 70.0 mi ESE 16.1 mph - N/A   Mostly Cloudy
3:55 PM 69.8 °F 32.0 °F 25% 29.65 in 70.0 mi ESE 10.4 mph 21.9 mph N/A   Mostly Cloudy
4:55 PM 71.6 °F 28.4 °F 20% 29.60 in 25.0 mi Calm Calm - N/A   Mostly Cloudy
5:55 PM 73.4 °F 28.4 °F 19% 29.59 in 70.0 mi WSW 25.3 mph 32.2 mph N/A   Scattered Clouds
6:55 PM 66.2 °F 30.2 °F 26% 29.62 in 70.0 mi WSW 12.7 mph - N/A   Mostly Cloudy
7:55 PM 62.6 °F 37.4 °F 39% 29.65 in 70.0 mi NNW 11.5 mph - N/A   Mostly Cloudy
8:55 PM 60.8 °F 39.2 °F 45% 29.69 in 25.0 mi NE 12.7 mph - N/A   Mostly Cloudy
9:55 PM 55.4 °F 39.2 °F 54% 29.74 in 25.0 mi North 4.6 mph - N/A   Mostly Cloudy
10:55 PM 51.8 °F 39.2 °F 62% 29.73 in 10.0 mi SSE 4.6 mph - N/A   Mostly Cloudy
11:55 PM 50.0 °F 39.2 °F 66% 29.73 in 10.0 mi WNW 5.8 mph - N/A   Mostly Cloudy